When you browse on this site, cookies collect data to enhance your experience and personalize the content and advertising you see.
Visit our Privacy Policy to learn more. By continuing to use the site, you agree to this use of cookies and data.
  • In Hungary
  • List of Countries
  • For 7 days
  • Water Temperature
  • Weather Map
  • News
  • Weather Widgets
  • user-avatar
    Login

    Hourly Weather Idzincab

    Today, 21 November, Thursday

    Time Temperature Precipitation Wind Pressure Humidity
    00:00 +24°C° 0 mm 2 mps 761 mmHg 76%
    01:00 +23°C° 0 mm 2 mps 761 mmHg 78%
    02:00 +21°C° 0 mm 2 mps 761 mmHg 81%
    03:00 +21°C° 0 mm 2 mps 761 mmHg 83%
    04:00 +21°C° 0 mm 2 mps 761 mmHg 83%
    05:00 +21°C° 0 mm 2 mps 761 mmHg 83%
    06:00 +20°C° 0 mm 2 mps 761 mmHg 83%
    07:00 +23°C° 0 mm 2 mps 761 mmHg 78%
    08:00 +25°C° 0 mm 3 mps 762 mmHg 72%
    09:00 +27°C° 0 mm 3 mps 762 mmHg 67%
    10:00 +28°C° 0 mm 3 mps 761 mmHg 62%
    11:00 +30°C° 0 mm 3 mps 761 mmHg 58%
    12:00 +31°C° 0 mm 3 mps 760 mmHg 53%
    13:00 +31°C° 0 mm 3 mps 760 mmHg 54%
    14:00 +31°C° 0 mm 2 mps 759 mmHg 56%
    15:00 +31°C° 0 mm 2 mps 759 mmHg 57%
    16:00 +29°C° 0.1 mm 2 mps 759 mmHg 66%
    17:00 +27°C° 0.1 mm 2 mps 759 mmHg 74%
    18:00 +25°C° 0.1 mm 2 mps 760 mmHg 83%
    19:00 +25°C° 0.1 mm 2 mps 760 mmHg 84%
    20:00 +24°C° 0.1 mm 2 mps 760 mmHg 86%
    21:00 +24°C° 0.1 mm 2 mps 761 mmHg 88%
    22:00 +23°C° 0 mm 2 mps 761 mmHg 89%
    23:00 +21°C° 0 mm 2 mps 760 mmHg 90%

    Tomorrow, 22 November, Friday

    Time Temperature Precipitation Wind Pressure Humidity
    00:00 +21°C° 0 mm 2 mps 760 mmHg 92%
    01:00 +21°C° 0 mm 2 mps 760 mmHg 93%
    02:00 +20°C° 0 mm 2 mps 760 mmHg 94%
    03:00 +20°C° 0 mm 2 mps 759 mmHg 95%
    04:00 +20°C° 0 mm 2 mps 760 mmHg 95%
    05:00 +20°C° 0 mm 2 mps 760 mmHg 96%
    06:00 +20°C° 0 mm 2 mps 760 mmHg 97%
    07:00 +23°C° 0 mm 2 mps 760 mmHg 90%
    08:00 +25°C° 0 mm 2 mps 761 mmHg 82%
    09:00 +26°C° 0 mm 2 mps 761 mmHg 74%
    10:00 +28°C° 0 mm 2 mps 761 mmHg 66%
    11:00 +30°C° 0 mm 2 mps 760 mmHg 58%
    12:00 +32°C° 0 mm 2 mps 760 mmHg 49%
    13:00 +32°C° 0 mm 2 mps 759 mmHg 48%
    14:00 +32°C° 0 mm 2 mps 758 mmHg 47%
    15:00 +32°C° 0 mm 1 mps 758 mmHg 46%
    16:00 +30°C° 0 mm 2 mps 758 mmHg 55%
    17:00 +28°C° 0 mm 2 mps 758 mmHg 65%
    18:00 +26°C° 0 mm 2 mps 758 mmHg 74%
    19:00 +25°C° 0 mm 2 mps 759 mmHg 78%
    20:00 +24°C° 0 mm 2 mps 759 mmHg 81%
    21:00 +23°C° 0 mm 2 mps 759 mmHg 84%
    22:00 +23°C° 0 mm 2 mps 759 mmHg 87%
    23:00 +23°C° 0 mm 2 mps 759 mmHg 89%

    Day after tomorrow, 23 November, Saturday

    Time Temperature Precipitation Wind Pressure Humidity
    00:00 +22°C° 0 mm 1 mps 759 mmHg 92%
    01:00 +22°C° 0 mm 1 mps 759 mmHg 93%
    02:00 +22°C° 0 mm 1 mps 759 mmHg 95%
    03:00 +21°C° 0 mm 1 mps 759 mmHg 96%
    04:00 +21°C° 0 mm 1 mps 759 mmHg 97%
    05:00 +21°C° 0 mm 1 mps 759 mmHg 97%
    06:00 +21°C° 0 mm 1 mps 759 mmHg 97%
    07:00 +23°C° 0 mm 1 mps 760 mmHg 89%
    08:00 +25°C° 0 mm 1 mps 760 mmHg 80%
    09:00 +27°C° 0 mm 2 mps 761 mmHg 72%
    10:00 +29°C° 0 mm 1 mps 760 mmHg 64%
    11:00 +31°C° 0 mm 1 mps 760 mmHg 57%
    12:00 +33°C° 0 mm 1 mps 759 mmHg 49%
    13:00 +32°C° 0 mm 1 mps 759 mmHg 50%
    14:00 +32°C° 0 mm 1 mps 759 mmHg 51%
    15:00 +32°C° 0 mm 1 mps 758 mmHg 52%
    16:00 +30°C° 0 mm 1 mps 758 mmHg 60%
    17:00 +28°C° 0 mm 2 mps 759 mmHg 69%
    18:00 +26°C° 0 mm 2 mps 759 mmHg 77%
    19:00 +25°C° 0 mm 2 mps 759 mmHg 81%
    20:00 +24°C° 0 mm 2 mps 760 mmHg 85%
    21:00 +23°C° 0 mm 1 mps 760 mmHg 89%
    22:00 +23°C° 0 mm 1 mps 760 mmHg 91%
    23:00 +23°C° 0 mm 1 mps 760 mmHg 93%

    24 November, Sunday

    Time Temperature Precipitation Wind Pressure Humidity
    00:00 +22°C° 0 mm 1 mps 760 mmHg 95%
    01:00 +22°C° 0 mm 1 mps 760 mmHg 96%
    02:00 +22°C° 0 mm 1 mps 759 mmHg 96%
    03:00 +22°C° 0 mm 1 mps 759 mmHg 97%
    04:00 +21°C° 0 mm 1 mps 760 mmHg 97%
    05:00 +19°C° 0 mm 0 mps 760 mmHg 97%
    06:00 +19°C° 0 mm 0 mps 760 mmHg 96%
    07:00 +21°C° 0 mm 0 mps 760 mmHg 87%
    08:00 +26°C° 0 mm 1 mps 761 mmHg 78%
    09:00 +28°C° 0 mm 1 mps 761 mmHg 68%
    10:00 +30°C° 0 mm 1 mps 761 mmHg 62%
    11:00 +31°C° 0 mm 1 mps 760 mmHg 56%
    12:00 +32°C° 0 mm 1 mps 760 mmHg 50%
    13:00 +32°C° 0 mm 2 mps 759 mmHg 51%
    14:00 +32°C° 0 mm 2 mps 759 mmHg 53%
    15:00 +31°C° 0 mm 2 mps 758 mmHg 54%
    16:00 +29°C° 0 mm 2 mps 758 mmHg 62%
    17:00 +27°C° 0 mm 2 mps 758 mmHg 70%
    18:00 +25°C° 0 mm 2 mps 758 mmHg 79%
    19:00 +25°C° 0 mm 2 mps 759 mmHg 82%
    20:00 +24°C° 0 mm 1 mps 759 mmHg 86%
    21:00 +23°C° 0 mm 1 mps 760 mmHg 89%
    22:00 +23°C° 0 mm 1 mps 759 mmHg 91%
    23:00 +23°C° 0 mm 1 mps 759 mmHg 92%

    25 November, Monday

    Time Temperature Precipitation Wind Pressure Humidity
    00:00 +21°C° 0 mm 0 mps 759 mmHg 93%
    01:00 +20°C° 0 mm 0 mps 759 mmHg 94%
    02:00 +20°C° 0 mm 0 mps 758 mmHg 94%
    03:00 +20°C° 0 mm 0 mps 758 mmHg 95%
    04:00 +22°C° 0 mm 1 mps 758 mmHg 96%
    05:00 +22°C° 0 mm 1 mps 758 mmHg 96%
    06:00 +22°C° 0 mm 1 mps 758 mmHg 96%
    07:00 +24°C° 0 mm 1 mps 759 mmHg 88%
    08:00 +26°C° 0 mm 1 mps 759 mmHg 80%
    09:00 +28°C° 0 mm 1 mps 759 mmHg 71%
    10:00 +29°C° 0 mm 1 mps 759 mmHg 65%
    11:00 +31°C° 0 mm 1 mps 758 mmHg 58%
    12:00 +32°C° 0 mm 1 mps 758 mmHg 52%
    13:00 +32°C° 0 mm 1 mps 757 mmHg 52%
    14:00 +32°C° 0 mm 1 mps 756 mmHg 53%
    15:00 +32°C° 0 mm 1 mps 756 mmHg 53%
    16:00 +30°C° 0 mm 1 mps 756 mmHg 62%
    17:00 +28°C° 0 mm 2 mps 756 mmHg 71%
    18:00 +25°C° 0 mm 2 mps 756 mmHg 79%
    19:00 +25°C° 0 mm 2 mps 757 mmHg 83%
    20:00 +24°C° 0 mm 2 mps 757 mmHg 86%
    21:00 +23°C° 0 mm 2 mps 758 mmHg 90%
    22:00 +23°C° 0 mm 2 mps 757 mmHg 90%
    23:00 +23°C° 0 mm 2 mps 757 mmHg 91%

    26 November, Tuesday

    Time Temperature Precipitation Wind Pressure Humidity
    00:00 +23°C° 0 mm 2 mps 757 mmHg 91%
    01:00 +21°C° 0 mm 2 mps 756 mmHg 92%
    02:00 +21°C° 0 mm 2 mps 756 mmHg 94%
    03:00 +21°C° 0 mm 2 mps 756 mmHg 95%
    04:00 +20°C° 0 mm 2 mps 756 mmHg 96%
    05:00 +20°C° 0 mm 2 mps 757 mmHg 96%
    06:00 +20°C° 0 mm 2 mps 757 mmHg 97%
    07:00 +23°C° 0 mm 2 mps 757 mmHg 88%
    08:00 +25°C° 0 mm 3 mps 758 mmHg 80%
    09:00 +27°C° 0 mm 3 mps 758 mmHg 71%
    10:00 +29°C° 0 mm 3 mps 758 mmHg 64%
    11:00 +30°C° 0 mm 3 mps 757 mmHg 57%
    12:00 +33°C° 0 mm 3 mps 756 mmHg 51%
    13:00 +33°C° 0 mm 3 mps 756 mmHg 49%
    14:00 +34°C° 0 mm 3 mps 755 mmHg 47%
    15:00 +34°C° 0 mm 2 mps 755 mmHg 45%
    16:00 +31°C° 0 mm 2 mps 755 mmHg 52%
    17:00 +29°C° 0 mm 2 mps 756 mmHg 58%
    18:00 +27°C° 0 mm 2 mps 756 mmHg 65%
    19:00 +27°C° 0 mm 2 mps 756 mmHg 69%
    20:00 +26°C° 0 mm 2 mps 757 mmHg 73%
    21:00 +25°C° 0 mm 3 mps 758 mmHg 77%
    22:00 +25°C° 0 mm 3 mps 758 mmHg 81%
    23:00 +24°C° 0 mm 2 mps 758 mmHg 86%
    Show more